Find Starlink 30264

NORAD ID: 57534 Int'l Des: 2023-115 Owner: SPXS Country: US Constellation: starlink operational
LEOCIRCULAR

实时位置

正在加载3D地球...

关于 Starlink 30264

正在加载描述...

即将过境

Passes for default location (London). Set your location on the main map for personalized predictions.

高度历史

Loading altitude history...

两行轨道根数

1 57534U 23115P 26133.46741725 -.00000351 00000-0 -32294-5 0 9993
2 57534 42.9995 203.0640 0001237 261.9741 98.0970 15.27579854155267
Epoch: May 13, 2026 • Age: 9 hours

当前状态

高度 491.7 km
速度 7.62 km/s
星下点 -33.56°S, 106.83°W
发射日期 Aug 8, 2023
运行时间 2.7 years
类型 internet

技术详情

分类 Payload
质量 730.00 kg
干质量 700.00 kg
总质量 730.00 kg
长度 0.30 m
直径 4.10 m
跨度 29.00 m
形状 Box + pan
制造商 SPXS
平台类型 Starlink V2M
阶段状态 In Orbit
所有者/国家 SPXS/US

Most Searched